FW7230 Weather Reports


Display with metric or nautical units.
time (UTC)temp
F
wind
direction
speed
MPH
gust
MPH
rain 1hr
in
rain 24hr
in
rain mn
in
humidity
%
barometer
mb
20260508002332 73 229 6.0 10.0 0.00 0.00 0.00 36 1008.2
20260508001337 72 224 7.0 13.0 0.00 0.00 0.00 35 1008.2
20260508000335 73 233 5.0 14.0 0.00 0.00 0.00 34 1008.3
20260507235340 74 224 7.0 13.0 0.00 0.00 0.00 34 1008.2
20260507234543 74 222 9.0 13.0 0.00 0.00 0.00 33 1008.2
20260507233331 74 229 4.0 11.0 0.00 0.00 0.00 33 1008.3
20260507232338 74 232 6.0 13.0 0.00 0.00 0.00 34 1008.4
20260507231345 73 239 7.0 14.0 0.00 0.00 0.00 34 1008.5
20260507230810 74 246 9.0 15.0 0.00 0.00 0.00 32 1008.5
20260507224341 74 207 6.0 16.0 0.00 0.00 0.00 33 1008.6
20260507223338 74 225 9.0 16.0 0.00 0.00 0.00 34 1008.7
20260507222326 73 210 10.0 15.0 0.00 0.00 0.00 35 1008.7
20260507221355 73 256 6.0 14.0 0.00 0.00 0.00 35 1009.0
20260507220330 73 214 7.0 18.0 0.00 0.00 0.00 34 1009.2
20260507215337 72 221 6.0 11.0 0.00 0.00 0.00 35 1009.4
20260507214343 73 271 9.0 15.0 0.00 0.00 0.00 33 1009.5
20260507213340 72 257 8.0 16.0 0.00 0.00 0.00 35 1009.6
20260507212326 72 224 12.0 18.0 0.00 0.00 0.00 34 1009.7
20260507211329 72 224 8.0 14.0 0.00 0.00 0.00 34 1010.0
20260507210346 71 257 8.0 20.0 0.00 0.00 0.00 38 1010.1
20260507210044 71 218 8.0 21.0 0.00 0.00 0.00 39 1010.4
20260507203334 71 220 8.0 15.0 0.00 0.00 0.00 37 1010.7
20260507202401 71 201 9.0 19.0 0.00 0.00 0.00 38 1010.7
20260507201544 71 203 10.0 18.0 0.00 0.00 0.00 38 1010.8
20260507200347 70 218 8.0 16.0 0.00 0.00 0.00 37 1010.9
20260507195326 70 269 10.0 18.0 0.00 0.00 0.00 37 1011.1
20260507194330 70 197 9.0 17.0 0.00 0.00 0.00 40 1011.1
20260507193349 69 205 8.0 17.0 0.00 0.00 0.00 39 1011.2
20260507193044 70 215 12.0 17.0 0.00 0.00 0.00 41 1011.4
20260507191334 69 180 9.0 18.0 0.00 0.00 0.00 40 1011.4
20260507190349 69 191 9.0 19.0 0.00 0.00 0.00 40 1011.4
20260507185328 69 198 6.0 12.0 0.00 0.00 0.00 45 1011.6
20260507184356 68 224 11.0 18.0 0.00 0.00 0.00 41 1011.7
20260507184043 68 204 11.0 21.0 0.00 0.00 0.00 41 1012.0
20260507181332 68 236 10.0 20.0 0.00 0.00 0.00 42 1012.2
20260507180349 68 208 10.0 17.0 0.00 0.00 0.00 41 1012.2
20260507175328 67 221 11.0 19.0 0.00 0.00 0.00 41 1012.5
20260507174334 67 188 9.0 17.0 0.00 0.00 0.00 43 1012.6
20260507173333 66 237 10.0 18.0 0.00 0.00 0.00 44 1012.7
20260507172339 65 217 10.0 18.0 0.00 0.00 0.00 44 1012.9
20260507171340 65 243 12.0 18.0 0.00 0.00 0.00 44 1013.0
20260507165545 64 235 10.0 19.0 0.00 0.00 0.00 50 1013.4
20260507164337 64 270 10.0 20.0 0.00 0.00 0.00 49 1013.5
20260507163354 64 198 10.0 17.0 0.00 0.00 0.00 49 1013.6
20260507162356 63 233 10.0 17.0 0.00 0.00 0.00 49 1013.8
20260507161339 63 223 9.0 19.0 0.00 0.00 0.00 52 1013.9
20260507160336 62 262 9.0 16.0 0.00 0.00 0.00 52 1014.0
20260507155342 62 262 9.0 17.0 0.00 0.00 0.00 53 1014.1
20260507154328 61 263 10.0 17.0 0.00 0.00 0.00 55 1014.2
20260507153346 61 225 9.0 16.0 0.00 0.00 0.00 57 1014.3
20260507152328 60 218 9.0 15.0 0.00 0.00 0.00 58 1014.4
20260507151816 59 256 9.0 16.0 0.00 0.00 0.00 59 1014.6
20260507150546 58 207 8.0 15.0 0.00 0.00 0.00 63 1014.6
20260507145344 57 280 8.0 22.0 0.00 0.00 0.00 63 1014.7
20260507144332 57 257 10.0 15.0 0.00 0.00 0.00 65 1014.8
20260507143349 56 220 8.0 16.0 0.00 0.00 0.00 66 1014.9
20260507142329 56 263 7.0 12.0 0.00 0.00 0.00 68 1015.0
20260507141336 55 243 8.0 12.0 0.00 0.00 0.00 68 1015.0
20260507140335 54 263 9.0 13.0 0.00 0.00 0.00 69 1015.0
20260507135336 54 246 9.0 13.0 0.00 0.00 0.00 70 1015.0
20260507134813 53 224 6.0 12.0 0.00 0.00 0.00 74 1015.0
20260507133335 53 246 8.0 11.0 0.00 0.00 0.00 74 1015.1
20260507133046 52 238 5.0 10.0 0.00 0.00 0.00 78 1015.2
20260507131337 52 235 5.0 9.0 0.00 0.00 0.00 78 1015.2
20260507130336 51 256 4.0 8.0 0.00 0.00 0.00 81 1015.2
20260507125342 50 226 4.0 7.0 0.00 0.00 0.00 83 1015.2
20260507124329 49 211 3.0 5.0 0.00 0.00 0.00 84 1015.2
20260507123326 48 198 2.0 4.0 0.00 0.00 0.00 86 1015.2
20260507122330 46 204 1.0 3.0 0.00 0.00 0.00 91 1015.1
20260507121336 44 229 0.0 2.0 0.00 0.00 0.00 94 1015.0
20260507120334 41 307 0.0 0.0 0.00 0.00 0.00 95 1014.8
20260507115400 38 307 0.0 0.0 0.00 0.00 0.00 95 1015.0
20260507114326 37 307 0.0 0.0 0.00 0.00 0.00 94 1015.1
20260507113326 37 307 0.0 0.0 0.00 0.00 0.00 93 1015.1
20260507112331 36 307 0.0 0.0 0.00 0.00 0.00 92 1015.1
20260507111338 36 307 0.0 0.0 0.00 0.00 0.00 92 1015.0
20260507111047 36 307 0.0 0.0 0.00 0.00 0.00 91 1015.1
20260507105547 36 307 0.0 0.0 0.00 0.00 0.00 91 1015.1
20260507104332 37 307 0.0 0.0 0.00 0.00 0.00 91 1015.0
20260507103547 36 307 0.0 0.0 0.00 0.00 0.00 90 1015.1
20260507102329 37 307 0.0 0.0 0.00 0.00 0.00 89 1015.2
20260507101358 37 307 0.0 0.0 0.00 0.00 0.00 89 1015.2
20260507100335 38 307 0.0 0.0 0.00 0.00 0.00 88 1015.3
20260507095341 38 290 0.0 0.0 0.00 0.00 0.00 87 1015.3
20260507094329 38 291 0.0 0.0 0.00 0.00 0.00 87 1015.3
20260507093326 39 291 0.0 0.0 0.00 0.00 0.00 84 1015.3
20260507092331 39 290 0.0 0.0 0.00 0.00 0.00 86 1015.4
20260507091334 39 290 0.0 0.0 0.00 0.00 0.00 86 1015.3
20260507090546 39 291 0.0 0.0 0.00 0.00 0.00 86 1015.5
20260507085331 38 290 0.0 0.0 0.00 0.00 0.00 87 1015.6
20260507084338 38 291 0.0 0.0 0.00 0.00 0.00 87 1015.6
20260507083335 38 290 0.0 0.0 0.00 0.00 0.00 87 1015.8
20260507082344 38 290 0.0 0.0 0.00 0.00 0.00 87 1015.8
20260507081331 38 290 0.0 0.0 0.00 0.00 0.00 87 1015.9
20260507080330 38 290 0.0 0.0 0.00 0.00 0.00 88 1015.9
20260507075337 38 291 0.0 0.0 0.00 0.00 0.00 88 1015.9
20260507074326 38 291 0.0 0.0 0.00 0.00 0.00 90 1016.0
20260507073326 38 291 0.0 0.0 0.00 0.00 0.00 91 1016.2
20260507072330 38 291 0.0 0.0 0.00 0.00 0.00 92 1016.3
20260507071548 37 291 0.0 1.0 0.00 0.00 0.00 92 1016.4
20260507070334 37 290 1.0 1.0 0.00 0.00 0.00 92 1016.5
20260507065338 36 290 0.0 0.0 0.00 0.00 0.00 92 1016.7
20260507064336 36 290 1.0 2.0 0.00 0.00 0.00 92 1016.7
20260507063334 36 360 2.0 2.0 0.00 0.00 0.00 91 1016.7
20260507062340 37 360 0.0 0.0 0.00 0.00 0.00 90 1016.8
20260507061332 37 359 0.0 2.0 0.00 0.00 0.00 91 1016.8
20260507060350 38 360 2.0 2.0 0.00 0.00 0.00 91 1016.8
20260507055330 38 360 2.0 2.0 0.00 0.00 0.00 90 1016.9
20260507054337 38 360 1.0 2.0 0.00 0.00 0.00 89 1017.0
20260507053356 38 360 0.0 1.0 0.00 0.00 0.00 89 1017.1
20260507052344 39 360 2.0 2.0 0.00 0.00 0.00 89 1017.1
20260507052049 39 360 2.0 2.0 0.00 0.00 0.00 89 1017.1
20260507050344 39 359 2.0 2.0 0.00 0.00 0.00 88 1017.1
20260507045347 40 359 1.0 1.0 0.00 0.00 0.00 88 1017.1
20260507044338 40 359 0.0 2.0 0.00 0.00 0.00 87 1017.2
20260507043336 41 359 0.0 1.0 0.00 0.00 0.00 86 1017.3
20260507042342 41 360 0.0 1.0 0.00 0.00 0.00 86 1017.2
20260507041330 42 360 0.0 1.0 0.00 0.00 0.00 85 1017.3
20260507040349 42 360 2.0 2.0 0.00 0.00 0.00 85 1017.3
20260507035329 42 360 2.0 2.0 0.00 0.00 0.00 84 1017.4
20260507034336 42 319 2.0 2.0 0.00 0.00 0.00 83 1017.4
20260507033337 42 275 2.0 2.0 0.00 0.00 0.00 82 1017.4
20260507032343 43 276 1.0 2.0 0.00 0.00 0.00 81 1017.4
20260507031332 43 276 1.0 1.0 0.00 0.00 0.00 79 1017.4
20260507030331 43 276 1.0 1.0 0.00 0.00 0.00 78 1017.4
20260507025340 43 275 0.0 1.0 0.00 0.00 0.00 77 1017.4
20260507024329 44 275 0.0 2.0 0.00 0.00 0.00 76 1017.4
20260507023344 44 275 1.0 1.0 0.00 0.00 0.00 74 1017.3
20260507022325 45 276 1.0 1.0 0.00 0.00 0.00 72 1017.3
20260507021352 46 275 0.0 2.0 0.00 0.00 0.00 71 1017.1
20260507020349 46 274 0.0 0.0 0.00 0.00 0.00 69 1017.0
20260507015330 47 274 0.0 0.0 0.00 0.00 0.00 64 1017.0
20260507014336 48 275 0.0 0.0 0.00 0.00 0.00 59 1017.0
20260507013335 50 276 0.0 0.0 0.00 0.00 0.00 52 1017.0
20260507012748 51 275 0.0 0.0 0.00 0.00 0.00 49 1016.9
20260507011326 53 276 0.0 0.0 0.00 0.00 0.00 42 1016.8
20260507010752 55 276 0.0 0.0 0.00 0.00 0.00 39 1016.8
20260507005324 58 276 0.0 0.0 0.00 0.00 0.00 35 1016.8
20260507004328 60 276 0.0 1.0 0.00 0.00 0.00 34 1016.8
20260507003348 60 278 0.0 1.0 0.00 0.00 0.00 35 1016.8